Regional Weather Roundup
Issued by NWS Memphis, TN

Home | Current Version | Previous Version | Text Only | Print | Product List | Glossary On
Versions: 1 2 3 4 5 6 7 8 9 10 11 12 13 14 15 16 17 18 19 20 21 22 23 24 25 26 27 28 29 30 31 32 33 34 35 36 37 38 39 40 41 42 43 44 45 46 47 48 49 50
000
ASUS44 KMEG 010310
RWRMEG
MEMPHIS CWA HOURLY WEATHER ROUNDUP
NATIONAL WEATHER SERVICE MEMPHIS TN
1000 PM CDT THU JUL 31 2014

...WEST TENNESSEE...

CITY           SKY/WX    TMP DP  RH WIND       PRES   REMARKS
MEMPHIS INTL   CLOUDY    74  66  76 N5        30.06S
NWS MEMPHIS      N/A     73 N/A N/A MISG        N/A
JACKSON        MOCLDY    70  66  87 CALM      30.07R
LEXINGTON      CLEAR     68  64  88 CALM      30.07R
SAVANNAH       MOCLDY    67  67 100 CALM      30.07S
DYERSBURG      CLOUDY    70  59  68 CALM      30.07S
UNION CITY     CLEAR     66  66 100 CALM      30.06R
PARIS          MOCLDY    63  61  93 CALM      30.08S


...EASTERN ARKANSAS...

CITY           SKY/WX    TMP DP  RH WIND       PRES   REMARKS
JONESBORO      CLOUDY    70  67  90 CALM      30.06R
WEST MEMPHIS   CLOUDY    69  69 100 NW3       30.05S
BATESVILLE     CLOUDY    70  66  88 CALM      30.07R
NEWPORT        CLOUDY    70  67  90 CALM      30.08R
WALNUT RIDGE   MOCLDY    72  66  83 S3        30.06R
BLYTHEVILLE    CLOUDY    71  68  90 CALM      30.07R
SEARCY         MOCLDY    69  67  93 CALM      30.08R
STUTTGART      CLOUDY    70  64  83 NE7       30.07S
PINE BLUFF     CLOUDY    71  67  87 NE5       30.06R
MONTICELLO     CLOUDY    71  69  93 NE3       30.03S FOG


...NORTH MISSISSIPPI...

CITY           SKY/WX    TMP DP  RH WIND       PRES   REMARKS
TUPELO         PTCLDY    71  65  81 NE3       30.04S
OLIVE BRANCH   CLEAR     72  72 100 N3        30.07R
CLARKSDALE     CLOUDY    72  72 100 CALM      30.06R
CORINTH          N/A     68  66  94 CALM      30.05S
GRENADA        PTCLDY    72  66  83 N3        30.04S
GREENWOOD      PTCLDY    70  68  93 CALM      30.03S FOG
STARKVILLE     FAIR      68  64  88 CALM      30.04S
GOLDEN TRIANGL CLOUDY    72  63  73 CALM      30.05S


...SOUTHEAST MISSOURI...

CITY           SKY/WX    TMP DP  RH WIND       PRES   REMARKS
WEST PLAINS    MOCLDY    66  63  90 CALM      30.10R
POPLAR BLUFF   MOCLDY    66  62  87 CALM      30.06S
CAPE GIRARDEAU CLEAR     69  64  84 N3        30.07R


...NORTHWEST ALABAMA...

CITY           SKY/WX    TMP DP  RH WIND       PRES   REMARKS
MUSCLE SHOALS  MOCLDY    70  64  81 CALM      30.07R


...MIDDLE TENNESSEE...

CITY           SKY/WX    TMP DP  RH WIND       PRES   REMARKS
NASHVILLE      PTCLDY    73  61  65 CALM      30.07R
CLARKSVILLE    PTCLDY    71  62  73 W6        30.06R
DICKSON        PTCLDY    66  61  82 CALM      30.08R
COLUMBIA       CLEAR     70  64  83 CALM      30.06S
LEWISBURG      CLEAR     66  61  84 W5        30.07R


...WESTERN KENTUCKY...

CITY           SKY/WX    TMP DP  RH WIND       PRES   REMARKS
PADUCAH        PTCLDY    66  62  87 CALM      30.07R
FORT CAMPBELL  PTCLDY    73  61  67 W6        30.07R


...CENTRAL ARKANSAS...

CITY           SKY/WX    TMP DP  RH WIND       PRES   REMARKS
LITTLE ROCK    CLOUDY    69  64  84 E3        30.06S


SKY/WX REPORTED AS FAIR MEANS FEW OR NO CLOUDS BELOW
12 THOUSAND FEET.




USA.gov is the U.S. government's official web portal to all federal, state and local government web resources and services.